Time,TemperatureF,DewpointF,PressureIn,WindDirection,WindDirectionDegrees,WindSpeedMPH,WindSpeedGustMPH,Humidity,HourlyPrecipIn,Conditions,Clouds,dailyrainin,SoftwareType,DateUTC
2013-09-24 05:45:00,41.9,36.4,29.91,West,270,0.0,0.0,81,0.00,,,0.00,WUHU21623XXSP,2013-09-24 09:45:00,
2013-09-24 05:50:00,41.9,36.4,29.91,West,270,0.0,0.0,81,0.00,,,0.00,WUHU21623XXSP,2013-09-24 09:50:00,
2013-09-24 05:55:00,41.7,36.6,29.91,West,270,0.0,0.0,82,0.00,,,0.00,WUHU21623XXSP,2013-09-24 09:55:00,
2013-09-24 06:00:00,41.7,36.6,29.91,WSW,247,0.0,0.0,82,0.00,,,0.00,WUHU21623XXSP,2013-09-24 10:00:00,
2013-09-24 06:05:00,41.7,36.6,29.92,WSW,247,0.0,0.0,82,0.00,,,0.00,WUHU21623XXSP,2013-09-24 10:05:00,
2013-09-24 06:10:00,41.7,36.6,29.91,WSW,247,0.0,0.0,82,0.00,,,0.00,WUHU21623XXSP,2013-09-24 10:10:00,
2013-09-24 06:15:00,41.5,36.4,29.91,SW,225,0.0,0.0,82,0.00,,,0.00,WUHU21623XXSP,2013-09-24 10:15:00,
2013-09-24 06:20:00,41.5,36.4,29.91,SW,225,0.0,0.0,82,0.00,,,0.00,WUHU21623XXSP,2013-09-24 10:20:00,
2013-09-24 06:25:00,41.5,36.4,29.92,NW,315,0.0,0.0,82,0.00,,,0.00,WUHU21623XXSP,2013-09-24 10:25:00,
2013-09-24 06:30:00,41.5,36.4,29.92,NW,315,0.0,0.0,82,0.00,,,0.00,WUHU21623XXSP,2013-09-24 10:30:00,
2013-09-24 06:35:00,41.5,36.4,29.92,NW,315,0.0,0.0,82,0.00,,,0.00,WUHU21623XXSP,2013-09-24 10:35:00,
2013-09-24 06:40:00,41.5,36.4,29.92,NW,315,0.0,0.0,82,0.00,,,0.00,WUHU21623XXSP,2013-09-24 10:40:00,
2013-09-24 06:45:00,41.5,36.4,29.92,NW,315,0.0,0.0,82,0.00,,,0.00,WUHU21623XXSP,2013-09-24 10:45:00,
2013-09-24 07:04:00,41.9,37.1,29.92,West,270,0.0,0.0,83,0.00,,,0.00,WUHU21623XXSP,2013-09-24 11:04:00,
2013-09-24 07:09:00,42.1,37.2,29.91,South,180,0.0,0.0,83,0.00,,,0.00,WUHU21623XXSP,2013-09-24 11:09:00,
2013-09-24 07:14:00,42.1,37.2,29.92,South,180,0.0,0.0,83,0.00,,,0.00,WUHU21623XXSP,2013-09-24 11:14:00,
2013-09-24 07:19:00,42.1,37.2,29.91,South,180,0.0,0.0,83,0.00,,,0.00,WUHU21623XXSP,2013-09-24 11:19:00,
2013-09-24 07:24:00,42.4,37.6,29.91,East,90,0.0,0.0,83,0.00,,,0.00,WUHU21623XXSP,2013-09-24 11:24:00,
2013-09-24 07:29:00,42.4,37.6,29.91,East,90,0.0,0.0,83,0.00,,,0.00,WUHU21623XXSP,2013-09-24 11:29:00,
2013-09-24 07:34:00,42.6,37.8,29.91,East,90,0.0,0.0,83,0.00,,,0.00,WUHU21623XXSP,2013-09-24 11:34:00,
2013-09-24 07:39:00,43.0,38.1,29.91,SSW,202,0.0,0.0,83,0.00,,,0.00,WUHU21623XXSP,2013-09-24 11:39:00,
2013-09-24 07:44:00,43.2,38.3,29.92,SSW,202,0.0,0.0,83,0.00,,,0.00,WUHU21623XXSP,2013-09-24 11:44:00,
2013-09-24 07:49:00,43.2,38.3,29.92,SSW,202,0.0,0.0,83,0.00,,,0.00,WUHU21623XXSP,2013-09-24 11:49:00,
2013-09-24 07:54:00,43.2,38.3,29.91,WNW,292,0.0,0.0,83,0.00,,,0.00,WUHU21623XXSP,2013-09-24 11:54:00,
2013-09-24 07:59:00,44.1,38.3,29.91,WSW,247,0.0,0.0,83,0.00,,,0.00,WUHU21623XXSP,2013-09-24 11:59:00,
2013-09-24 08:04:00,44.4,39.4,29.91,NW,315,0.0,1.8,83,0.00,,,0.00,WUHU21623XXSP,2013-09-24 12:04:00,
2013-09-24 08:09:00,45.0,39.9,29.91,NNE,22,0.0,1.8,83,0.00,,,0.00,WUHU21623XXSP,2013-09-24 12:09:00,
2013-09-24 08:14:00,45.1,40.3,29.91,NE,45,0.0,0.0,83,0.00,,,0.00,WUHU21623XXSP,2013-09-24 12:14:00,
2013-09-24 08:19:00,45.5,40.7,29.91,WSW,247,0.0,0.0,83,0.00,,,0.00,WUHU21623XXSP,2013-09-24 12:19:00,
2013-09-24 08:24:00,45.5,40.7,29.90,SSE,157,0.0,0.0,83,0.00,,,0.00,WUHU21623XXSP,2013-09-24 12:24:00,
2013-09-24 08:29:00,46.4,41.6,29.90,WSW,247,0.0,3.4,83,0.00,,,0.00,WUHU21623XXSP,2013-09-24 12:29:00,
2013-09-24 08:34:00,47.1,41.9,29.90,South,180,0.0,3.4,83,0.00,,,0.00,WUHU21623XXSP,2013-09-24 12:34:00,
2013-09-24 08:39:00,48.0,42.7,29.90,SSW,202,0.0,0.0,82,0.00,,,0.00,WUHU21623XXSP,2013-09-24 12:39:00,
2013-09-24 08:44:00,49.8,44.8,29.89,WNW,292,0.0,0.0,83,0.00,,,0.00,WUHU21623XXSP,2013-09-24 12:44:00,
2013-09-24 08:49:00,54.3,47.9,29.89,NNW,337,0.0,0.0,79,0.00,,,0.00,WUHU21623XXSP,2013-09-24 12:49:00,
2013-09-24 08:54:00,57.7,49.5,29.89,NE,45,0.0,2.9,74,0.00,,,0.00,WUHU21623XXSP,2013-09-24 12:54:00,
2013-09-24 08:59:00,60.4,50.7,29.89,SSE,157,0.0,2.9,70,0.00,,,0.00,WUHU21623XXSP,2013-09-24 12:59:00,
2013-09-24 09:04:00,63.3,50.9,29.89,WSW,247,2.2,2.2,64,0.00,,,0.00,WUHU21623XXSP,2013-09-24 13:04:00,
2013-09-24 09:09:00,64.9,50.7,29.89,NNE,22,0.0,3.1,60,0.00,,,0.00,WUHU21623XXSP,2013-09-24 13:09:00,
2013-09-24 09:14:00,66.0,50.3,29.89,WSW,247,2.2,3.1,57,0.00,,,0.00,WUHU21623XXSP,2013-09-24 13:14:00,
2013-09-24 09:19:00,67.8,50.5,29.89,NNW,337,3.6,3.6,54,0.00,,,0.00,WUHU21623XXSP,2013-09-24 13:19:00,
2013-09-24 09:24:00,68.9,50.5,29.88,North,0,2.0,3.6,52,0.00,,,0.00,WUHU21623XXSP,2013-09-24 13:24:00,
2013-09-24 09:29:00,69.6,50.2,29.87,West,270,0.0,2.9,50,0.00,,,0.00,WUHU21623XXSP,2013-09-24 13:29:00,
2013-09-24 09:34:00,70.2,49.6,29.87,ESE,112,0.0,2.2,49,0.00,,,0.00,WUHU21623XXSP,2013-09-24 13:34:00,
2013-09-24 09:39:00,70.5,49.8,29.87,NNE,22,4.9,4.9,48,0.00,,,0.00,WUHU21623XXSP,2013-09-24 13:39:00,
2013-09-24 09:44:00,70.9,49.5,29.87,NNW,337,2.0,4.9,47,0.00,,,0.00,WUHU21623XXSP,2013-09-24 13:44:00,
2013-09-24 09:49:00,71.4,50.0,29.87,NNW,337,0.0,4.9,47,0.00,,,0.00,WUHU21623XXSP,2013-09-24 13:49:00,
2013-09-24 09:54:00,72.3,50.3,29.87,South,180,0.0,3.6,46,0.00,,,0.00,WUHU21623XXSP,2013-09-24 13:54:00,
2013-09-24 09:59:00,72.7,50.0,29.86,NNW,337,1.6,3.8,45,0.00,,,0.00,WUHU21623XXSP,2013-09-24 13:59:00,
2013-09-24 10:04:00,72.0,48.9,29.86,West,270,2.0,3.8,44,0.00,,,0.00,WUHU21623XXSP,2013-09-24 14:04:00,
2013-09-24 10:09:00,71.4,48.3,29.87,NNW,337,0.0,2.0,44,0.00,,,0.00,WUHU21623XXSP,2013-09-24 14:09:00,
2013-09-24 10:14:00,70.7,47.7,29.86,NW,315,0.0,1.6,44,0.00,,,0.00,WUHU21623XXSP,2013-09-24 14:14:00,
2013-09-24 10:19:00,69.8,46.2,29.86,SSW,202,0.0,3.1,43,0.00,,,0.00,WUHU21623XXSP,2013-09-24 14:19:00,
2013-09-24 10:24:00,68.9,45.4,29.86,NNW,337,6.0,6.0,43,0.00,,,0.00,WUHU21623XXSP,2013-09-24 14:24:00,
2013-09-24 10:29:00,68.5,45.1,29.86,North,0,0.0,6.0,43,0.00,,,0.00,WUHU21623XXSP,2013-09-24 14:29:00,
2013-09-24 10:34:00,68.6,45.7,29.87,NNW,337,0.0,1.3,44,0.00,,,0.00,WUHU21623XXSP,2013-09-24 14:34:00,
2013-09-24 10:39:00,68.3,44.9,29.86,SSE,157,0.0,0.9,43,0.00,,,0.00,WUHU21623XXSP,2013-09-24 14:39:00,
2013-09-24 10:44:00,68.4,44.3,29.86,NNE,22,0.0,2.0,42,0.00,,,0.00,WUHU21623XXSP,2013-09-24 14:44:00,
2013-09-24 10:49:00,68.2,44.8,29.86,NE,45,4.0,4.0,43,0.00,,,0.00,WUHU21623XXSP,2013-09-24 14:49:00,
2013-09-24 10:54:00,68.2,44.1,29.86,South,180,0.0,4.0,42,0.00,,,0.00,WUHU21623XXSP,2013-09-24 14:54:00,
2013-09-24 10:59:00,67.6,42.9,29.85,WNW,292,2.5,4.0,41,0.00,,,0.00,WUHU21623XXSP,2013-09-24 14:59:00,
2013-09-24 11:04:00,67.3,43.3,29.85,North,0,4.7,4.7,42,0.00,,,0.00,WUHU21623XXSP,2013-09-24 15:04:00,
2013-09-24 11:09:00,67.0,41.8,29.85,SSW,202,3.1,4.7,40,0.00,,,0.00,WUHU21623XXSP,2013-09-24 15:09:00,
2013-09-24 11:14:00,67.0,42.4,29.85,NW,315,2.2,4.7,41,0.00,,,0.00,WUHU21623XXSP,2013-09-24 15:14:00,
2013-09-24 11:19:00,66.8,42.2,29.85,NW,315,2.2,2.2,41,0.00,,,0.00,WUHU21623XXSP,2013-09-24 15:19:00,
2013-09-24 11:24:00,66.7,42.1,29.84,NW,315,2.2,2.2,41,0.00,,,0.00,WUHU21623XXSP,2013-09-24 15:24:00,
2013-09-24 11:29:00,66.9,42.3,29.85,NW,315,2.2,2.2,41,0.00,,,0.00,WUHU21623XXSP,2013-09-24 15:29:00,
2013-09-24 11:34:00,66.9,41.7,29.85,North,0,4.0,4.0,40,0.00,,,0.00,WUHU21623XXSP,2013-09-24 15:34:00,
2013-09-24 11:39:00,67.4,42.1,29.84,West,270,0.9,4.0,40,0.00,,,0.00,WUHU21623XXSP,2013-09-24 15:39:00,
2013-09-24 11:44:00,68.0,43.3,29.84,NW,315,2.5,2.5,41,0.00,,,0.00,WUHU21623XXSP,2013-09-24 15:44:00,
2013-09-24 11:49:00,69.0,43.5,29.83,SW,225,0.0,2.5,40,0.00,,,0.00,WUHU21623XXSP,2013-09-24 15:49:00,
2013-09-24 11:54:00,69.2,43.8,29.83,SW,225,0.0,0.0,40,0.00,,,0.00,WUHU21623XXSP,2013-09-24 15:54:00,
2013-09-24 11:59:00,69.5,44.0,29.84,SW,225,0.0,0.0,40,0.00,,,0.00,WUHU21623XXSP,2013-09-24 15:59:00,
2013-09-24 12:04:00,70.6,43.6,29.84,SW,225,0.0,0.0,38,0.00,,,0.00,WUHU21623XXSP,2013-09-24 16:04:00,
2013-09-24 12:09:00,71.0,44.0,29.84,SW,225,0.0,0.0,38,0.00,,,0.00,WUHU21623XXSP,2013-09-24 16:09:00,
2013-09-24 12:14:00,71.5,44.4,29.84,SW,225,0.0,0.0,38,0.00,,,0.00,WUHU21623XXSP,2013-09-24 16:14:00,
2013-09-24 12:19:00,71.5,44.4,29.84,SW,225,0.0,0.0,38,0.00,,,0.00,WUHU21623XXSP,2013-09-24 16:19:00,
2013-09-24 14:08:00,64.9,45.3,29.80,SSW,202,0.0,0.0,49,0.00,,,0.00,WUHU21623XXSP,2013-09-24 18:08:00,
2013-09-24 14:13:00,64.9,45.3,29.80,SSW,202,0.0,0.0,49,0.00,,,0.00,WUHU21623XXSP,2013-09-24 18:13:00,
2013-09-24 14:18:00,64.6,45.5,29.81,SSW,202,0.0,0.0,50,0.00,,,0.00,WUHU21623XXSP,2013-09-24 18:18:00,
2013-09-24 14:23:00,64.6,45.5,29.81,WNW,292,2.9,2.9,50,0.00,,,0.00,WUHU21623XXSP,2013-09-24 18:23:00,
2013-09-24 14:28:00,64.6,45.3,29.80,NW,315,2.2,2.9,50,0.00,,,0.00,WUHU21623XXSP,2013-09-24 18:28:00,
2013-09-24 14:33:00,64.2,45.2,29.79,NE,45,1.6,2.2,50,0.00,,,0.00,WUHU21623XXSP,2013-09-24 18:33:00,
2013-09-24 14:38:00,64.2,45.2,29.79,NW,315,0.0,2.5,50,0.00,,,0.00,WUHU21623XXSP,2013-09-24 18:38:00,
2013-09-24 14:43:00,64.2,45.2,29.78,SSE,157,0.0,2.5,50,0.00,,,0.00,WUHU21623XXSP,2013-09-24 18:43:00,
2013-09-24 14:48:00,64.2,45.2,29.78,West,270,0.0,1.6,50,0.00,,,0.00,WUHU21623XXSP,2013-09-24 18:48:00,
2013-09-24 14:53:00,64.0,45.0,29.78,SSW,202,0.0,0.0,50,0.00,,,0.00,WUHU21623XXSP,2013-09-24 18:53:00,
2013-09-24 14:58:00,63.9,45.3,29.78,WNW,292,0.0,0.0,51,0.00,,,0.00,WUHU21623XXSP,2013-09-24 18:58:00,
2013-09-24 15:03:00,64.0,45.0,29.78,NW,315,0.0,3.8,50,0.00,,,0.00,WUHU21623XXSP,2013-09-24 19:03:00,
2013-09-24 15:08:00,64.0,44.8,29.78,NW,315,1.6,3.8,51,0.00,,,0.00,WUHU21623XXSP,2013-09-24 19:08:00,
2013-09-24 15:13:00,64.0,45.5,29.78,NW,315,1.6,1.6,51,0.00,,,0.00,WUHU21623XXSP,2013-09-24 19:13:00,
2013-09-24 15:18:00,64.0,46.0,29.79,NE,45,0.0,1.6,52,0.00,,,0.00,WUHU21623XXSP,2013-09-24 19:18:00,
2013-09-24 15:23:00,64.0,45.5,29.78,SW,225,2.0,2.0,51,0.00,,,0.00,WUHU21623XXSP,2013-09-24 19:23:00,
2013-09-24 15:28:00,64.0,45.5,29.78,SW,225,2.0,2.0,51,0.00,,,0.00,WUHU21623XXSP,2013-09-24 19:28:00,
2013-09-24 15:33:00,64.6,46.5,29.78,WNW,292,0.0,2.0,52,0.00,,,0.00,WUHU21623XXSP,2013-09-24 19:33:00,
2013-09-24 15:38:00,64.9,46.8,29.79,NNE,22,0.0,1.6,52,0.00,,,0.00,WUHU21623XXSP,2013-09-24 19:38:00,
2013-09-24 15:43:00,65.1,47.0,29.78,ESE,112,0.0,1.6,52,0.00,,,0.00,WUHU21623XXSP,2013-09-24 19:43:00,
2013-09-24 15:48:00,65.5,46.7,29.78,WNW,292,0.0,0.0,51,0.00,,,0.00,WUHU21623XXSP,2013-09-24 19:48:00,
2013-09-24 15:53:00,65.8,46.8,29.78,NNE,22,0.0,0.0,50,0.00,,,0.00,WUHU21623XXSP,2013-09-24 19:53:00,
2013-09-24 15:58:00,65.8,46.8,29.78,NNE,22,0.0,0.0,50,0.00,,,0.00,WUHU21623XXSP,2013-09-24 19:58:00,
2013-09-24 16:03:00,65.7,46.6,29.78,SE,135,1.1,1.1,50,0.00,,,0.00,WUHU21623XXSP,2013-09-24 20:03:00,
2013-09-24 16:08:00,65.1,45.8,29.78,SE,135,0.0,1.1,49,0.00,,,0.00,WUHU21623XXSP,2013-09-24 20:08:00,
2013-09-24 16:13:00,65.1,45.4,29.79,NW,315,2.2,2.2,49,0.00,,,0.00,WUHU21623XXSP,2013-09-24 20:13:00,
2013-09-24 16:18:00,64.9,45.4,29.78,NW,315,2.2,2.2,50,0.00,,,0.00,WUHU21623XXSP,2013-09-24 20:18:00,
2013-09-24 16:23:00,64.6,44.9,29.78,West,270,0.0,2.2,49,0.00,,,0.00,WUHU21623XXSP,2013-09-24 20:23:00,
2013-09-24 16:28:00,64.6,45.5,29.79,WSW,247,0.0,0.0,50,0.00,,,0.00,WUHU21623XXSP,2013-09-24 20:28:00,
2013-09-24 16:33:00,64.2,45.6,29.79,WSW,247,0.0,0.0,51,0.00,,,0.00,WUHU21623XXSP,2013-09-24 20:33:00,
2013-09-24 16:38:00,63.7,46.1,29.80,SSE,157,1.8,3.1,53,0.00,,,0.00,WUHU21623XXSP,2013-09-24 20:38:00,
2013-09-24 16:43:00,63.1,46.1,29.79,SE,135,0.0,3.1,54,0.00,,,0.00,WUHU21623XXSP,2013-09-24 20:43:00,
2013-09-24 16:48:00,62.6,45.8,29.80,WNW,292,0.0,0.0,54,0.00,,,0.00,WUHU21623XXSP,2013-09-24 20:48:00,
2013-09-24 16:53:00,62.1,46.1,29.80,SE,135,0.0,0.0,56,0.00,,,0.00,WUHU21623XXSP,2013-09-24 20:53:00,
2013-09-24 16:58:00,61.7,45.8,29.80,SSW,202,0.0,0.0,56,0.00,,,0.00,WUHU21623XXSP,2013-09-24 20:58:00,
2013-09-24 17:03:00,61.5,45.6,29.80,South,180,1.6,1.6,56,0.00,,,0.00,WUHU21623XXSP,2013-09-24 21:03:00,
2013-09-24 17:08:00,61.0,45.6,29.80,WNW,292,0.0,1.6,57,0.00,,,0.00,WUHU21623XXSP,2013-09-24 21:08:00,
2013-09-24 17:13:00,60.6,45.5,29.80,ESE,112,0.0,0.0,57,0.00,,,0.00,WUHU21623XXSP,2013-09-24 21:13:00,
2013-09-24 17:18:00,60.4,45.1,29.80,SSW,202,0.0,0.0,57,0.00,,,0.00,WUHU21623XXSP,2013-09-24 21:18:00,
2013-09-24 17:23:00,59.9,45.2,29.81,SSW,202,0.0,0.0,58,0.00,,,0.00,WUHU21623XXSP,2013-09-24 21:23:00,
2013-09-24 17:28:00,59.7,44.9,29.80,SSW,202,0.0,0.0,58,0.00,,,0.00,WUHU21623XXSP,2013-09-24 21:28:00,
2013-09-24 17:33:00,59.5,45.2,29.80,ENE,67,0.0,0.0,59,0.00,,,0.00,WUHU21623XXSP,2013-09-24 21:33:00,
2013-09-24 17:38:00,59.5,45.2,29.81,SSE,157,0.0,0.0,59,0.00,,,0.00,WUHU21623XXSP,2013-09-24 21:38:00,
2013-09-24 17:43:00,59.4,45.0,29.81,NNW,337,0.0,0.0,59,0.00,,,0.00,WUHU21623XXSP,2013-09-24 21:43:00,
2013-09-24 17:48:00,59.2,45.0,29.81,South,180,0.0,0.0,59,0.00,,,0.00,WUHU21623XXSP,2013-09-24 21:48:00,
2013-09-24 17:53:00,59.2,44.8,29.80,South,180,0.0,0.0,59,0.00,,,0.00,WUHU21623XXSP,2013-09-24 21:53:00,
2013-09-24 17:58:00,59.0,44.7,29.81,ESE,112,0.0,0.0,59,0.00,,,0.00,WUHU21623XXSP,2013-09-24 21:58:00,
2013-09-24 18:03:00,58.8,45.0,29.81,ENE,67,0.0,0.0,60,0.00,,,0.00,WUHU21623XXSP,2013-09-24 22:03:00,
2013-09-24 18:08:00,58.6,45.2,29.82,NNW,337,0.0,0.0,61,0.00,,,0.00,WUHU21623XXSP,2013-09-24 22:08:00,
2013-09-24 18:13:00,58.3,45.0,29.81,NNW,337,0.0,0.0,62,0.00,,,0.00,WUHU21623XXSP,2013-09-24 22:13:00,
2013-09-24 18:18:00,58.3,45.3,29.82,South,180,0.0,0.0,62,0.00,,,0.00,WUHU21623XXSP,2013-09-24 22:18:00,
2013-09-24 18:23:00,57.9,45.0,29.81,WSW,247,0.0,0.0,62,0.00,,,0.00,WUHU21623XXSP,2013-09-24 22:23:00,
2013-09-24 18:28:00,57.9,45.4,29.81,West,270,0.0,0.0,63,0.00,,,0.00,WUHU21623XXSP,2013-09-24 22:28:00,
2013-09-24 18:33:00,57.9,45.4,29.82,West,270,0.0,0.0,63,0.00,,,0.00,WUHU21623XXSP,2013-09-24 22:33:00,
2013-09-24 18:38:00,57.7,45.6,29.82,West,270,0.0,0.0,64,0.00,,,0.00,WUHU21623XXSP,2013-09-24 22:38:00,
2013-09-24 18:43:00,57.6,45.4,29.82,West,270,0.0,0.0,64,0.00,,,0.00,WUHU21623XXSP,2013-09-24 22:43:00,
2013-09-24 18:48:00,57.6,45.8,29.82,NW,315,0.0,0.0,65,0.00,,,0.00,WUHU21623XXSP,2013-09-24 22:48:00,
2013-09-24 18:53:00,57.4,45.7,29.83,West,270,0.0,0.0,65,0.00,,,0.00,WUHU21623XXSP,2013-09-24 22:53:00,
2013-09-24 18:58:00,57.2,45.7,29.82,West,270,0.0,0.0,66,0.00,,,0.00,WUHU21623XXSP,2013-09-24 22:58:00,
2013-09-24 19:03:00,57.2,45.9,29.82,West,270,0.0,0.0,66,0.00,,,0.00,WUHU21623XXSP,2013-09-24 23:03:00,
2013-09-24 19:08:00,57.0,46.1,29.83,West,270,0.0,0.0,67,0.00,,,0.00,WUHU21623XXSP,2013-09-24 23:08:00,
2013-09-24 19:13:00,57.0,46.1,29.83,West,270,0.0,0.0,67,0.00,,,0.00,WUHU21623XXSP,2013-09-24 23:13:00,
2013-09-24 19:18:00,57.0,46.1,29.83,WNW,292,0.0,0.0,67,0.00,,,0.00,WUHU21623XXSP,2013-09-24 23:18:00,
2013-09-24 19:23:00,57.0,46.1,29.84,WNW,292,0.0,0.0,67,0.00,,,0.00,WUHU21623XXSP,2013-09-24 23:23:00,
2013-09-24 19:28:00,57.0,46.1,29.83,WNW,292,0.0,0.0,67,0.00,,,0.00,WUHU21623XXSP,2013-09-24 23:28:00,
2013-09-24 19:33:00,57.0,46.1,29.83,NNW,337,0.0,0.0,67,0.00,,,0.00,WUHU21623XXSP,2013-09-24 23:33:00,
2013-09-24 19:38:00,57.0,46.5,29.84,North,0,0.0,0.0,68,0.00,,,0.00,WUHU21623XXSP,2013-09-24 23:38:00,
2013-09-24 19:43:00,57.0,46.5,29.84,North,0,0.0,0.0,68,0.00,,,0.00,WUHU21623XXSP,2013-09-24 23:43:00,
2013-09-24 19:48:00,56.8,46.7,29.84,NNW,337,0.0,0.0,69,0.00,,,0.00,WUHU21623XXSP,2013-09-24 23:48:00,
2013-09-24 19:53:00,56.8,46.7,29.85,NNW,337,0.0,0.0,69,0.00,,,0.00,WUHU21623XXSP,2013-09-24 23:53:00,
2013-09-24 19:58:00,56.8,46.7,29.85,North,0,0.0,0.0,69,0.00,,,0.00,WUHU21623XXSP,2013-09-24 23:58:00,
2013-09-24 20:03:00,56.8,47.2,29.85,NNW,337,0.0,0.0,70,0.00,,,0.00,WUHU21623XXSP,2013-09-25 00:03:00,
2013-09-24 20:08:00,56.5,46.8,29.85,NNW,337,0.0,0.0,70,0.00,,,0.00,WUHU21623XXSP,2013-09-25 00:08:00,
2013-09-24 20:13:00,56.5,46.8,29.85,North,0,0.0,0.0,70,0.00,,,0.00,WUHU21623XXSP,2013-09-25 00:13:00,
2013-09-24 20:18:00,56.5,46.8,29.85,North,0,0.0,0.0,71,0.00,,,0.00,WUHU21623XXSP,2013-09-25 00:18:00,
2013-09-24 20:23:00,56.3,47.0,29.86,North,0,0.0,0.0,71,0.00,,,0.00,WUHU21623XXSP,2013-09-25 00:23:00,
2013-09-24 20:28:00,56.3,47.0,29.85,North,0,0.0,0.0,71,0.00,,,0.00,WUHU21623XXSP,2013-09-25 00:28:00,
2013-09-24 20:33:00,56.1,46.9,29.86,North,0,0.0,0.0,72,0.00,,,0.00,WUHU21623XXSP,2013-09-25 00:33:00,
2013-09-24 20:38:00,56.1,47.2,29.86,North,0,0.0,0.0,72,0.00,,,0.00,WUHU21623XXSP,2013-09-25 00:38:00,
2013-09-24 20:43:00,56.1,47.2,29.85,NNW,337,0.0,0.0,72,0.00,,,0.00,WUHU21623XXSP,2013-09-25 00:43:00,
2013-09-24 20:48:00,55.9,47.4,29.86,NNW,337,0.0,0.0,73,0.00,,,0.00,WUHU21623XXSP,2013-09-25 00:48:00,
2013-09-24 20:53:00,55.9,47.4,29.86,NNW,337,0.0,0.0,73,0.00,,,0.00,WUHU21623XXSP,2013-09-25 00:53:00,
2013-09-24 20:58:00,55.9,47.4,29.86,NW,315,0.0,0.0,73,0.00,,,0.00,WUHU21623XXSP,2013-09-25 00:58:00,
2013-09-24 21:03:00,55.9,47.4,29.87,North,0,0.0,0.0,73,0.00,,,0.00,WUHU21623XXSP,2013-09-25 01:03:00,
2013-09-24 21:08:00,55.9,47.4,29.86,North,0,0.0,0.0,73,0.00,,,0.00,WUHU21623XXSP,2013-09-25 01:08:00,
2013-09-24 21:13:00,55.9,47.4,29.87,WNW,292,0.0,0.0,73,0.00,,,0.00,WUHU21623XXSP,2013-09-25 01:13:00,
2013-09-24 21:18:00,55.9,47.4,29.86,WNW,292,0.0,0.0,73,0.00,,,0.00,WUHU21623XXSP,2013-09-25 01:18:00,
2013-09-24 21:23:00,55.9,47.4,29.87,South,180,0.0,0.0,73,0.00,,,0.00,WUHU21623XXSP,2013-09-25 01:23:00,
2013-09-24 21:28:00,55.9,47.4,29.87,South,180,0.0,0.0,73,0.00,,,0.00,WUHU21623XXSP,2013-09-25 01:28:00,
2013-09-24 21:33:00,55.9,47.4,29.87,SSW,202,0.0,0.0,73,0.00,,,0.00,WUHU21623XXSP,2013-09-25 01:33:00,
2013-09-24 21:38:00,55.8,47.6,29.86,SSW,202,0.0,0.0,74,0.00,,,0.00,WUHU21623XXSP,2013-09-25 01:38:00,
2013-09-24 21:43:00,55.8,47.6,29.87,NW,315,0.0,0.0,74,0.00,,,0.00,WUHU21623XXSP,2013-09-25 01:43:00,
2013-09-24 21:48:00,55.6,47.4,29.87,NW,315,0.0,0.0,74,0.00,,,0.00,WUHU21623XXSP,2013-09-25 01:48:00,
2013-09-24 21:53:00,55.4,47.2,29.87,NW,315,0.0,0.0,74,0.00,,,0.00,WUHU21623XXSP,2013-09-25 01:53:00,
2013-09-24 21:58:00,55.2,47.0,29.87,North,0,0.0,0.0,74,0.00,,,0.00,WUHU21623XXSP,2013-09-25 01:58:00,
2013-09-24 22:03:00,55.0,46.9,29.87,NNW,337,0.0,0.0,74,0.00,,,0.00,WUHU21623XXSP,2013-09-25 02:03:00,
2013-09-24 22:08:00,54.7,46.5,29.86,NNW,337,0.0,0.0,74,0.00,,,0.00,WUHU21623XXSP,2013-09-25 02:08:00,
2013-09-24 22:13:00,54.5,46.4,29.87,NNW,337,0.0,0.0,74,0.00,,,0.00,WUHU21623XXSP,2013-09-25 02:13:00,
2013-09-24 22:18:00,54.1,46.0,29.87,NNW,337,0.0,0.0,74,0.00,,,0.00,WUHU21623XXSP,2013-09-25 02:18:00,
2013-09-24 22:23:00,53.8,46.0,29.87,NNW,337,0.0,0.0,75,0.00,,,0.00,WUHU21623XXSP,2013-09-25 02:23:00,
2013-09-24 22:28:00,53.4,45.7,29.87,NNW,337,0.0,0.0,75,0.00,,,0.00,WUHU21623XXSP,2013-09-25 02:28:00,
2013-09-24 22:33:00,53.2,45.5,29.86,NNW,337,0.0,0.0,75,0.00,,,0.00,WUHU21623XXSP,2013-09-25 02:33:00,
2013-09-24 22:38:00,53.1,45.7,29.87,NNW,337,0.0,0.0,76,0.00,,,0.00,WUHU21623XXSP,2013-09-25 02:38:00,
2013-09-24 22:43:00,52.9,45.5,29.87,NNW,337,0.0,0.0,76,0.00,,,0.00,WUHU21623XXSP,2013-09-25 02:43:00,
2013-09-24 22:48:00,52.5,45.2,29.87,NNW,337,0.0,0.0,76,0.00,,,0.00,WUHU21623XXSP,2013-09-25 02:48:00,
2013-09-24 22:53:00,52.3,45.0,29.87,NNW,337,0.0,0.0,76,0.00,,,0.00,WUHU21623XXSP,2013-09-25 02:53:00,
2013-09-24 22:58:00,52.2,44.8,29.87,NNW,337,0.0,0.0,76,0.00,,,0.00,WUHU21623XXSP,2013-09-25 02:58:00,
2013-09-24 23:03:00,51.8,44.5,29.87,NNW,337,0.0,0.0,77,0.00,,,0.00,WUHU21623XXSP,2013-09-25 03:03:00,
2013-09-24 23:08:00,51.6,44.7,29.87,NNW,337,0.0,0.0,77,0.00,,,0.00,WUHU21623XXSP,2013-09-25 03:08:00,
2013-09-24 23:13:00,51.4,44.7,29.87,NNW,337,0.0,0.0,77,0.00,,,0.00,WUHU21623XXSP,2013-09-25 03:13:00,
2013-09-24 23:18:00,51.4,44.5,29.87,NNW,337,0.0,0.0,77,0.00,,,0.00,WUHU21623XXSP,2013-09-25 03:18:00,
2013-09-24 23:23:00,51.4,44.5,29.87,NNW,337,0.0,0.0,77,0.00,,,0.00,WUHU21623XXSP,2013-09-25 03:23:00,
2013-09-24 23:28:00,51.4,44.5,29.87,NNW,337,0.0,0.0,77,0.00,,,0.00,WUHU21623XXSP,2013-09-25 03:28:00,
2013-09-24 23:33:00,51.4,44.5,29.87,NNW,337,0.0,0.0,77,0.00,,,0.00,WUHU21623XXSP,2013-09-25 03:33:00,
2013-09-24 23:38:00,51.4,44.5,29.87,NNW,337,0.0,0.0,77,0.00,,,0.00,WUHU21623XXSP,2013-09-25 03:38:00,